Regional Weather Roundup
Issued by NWS Upton, NY

Home | Current Version | Previous Version | Text Only | Print | Product List | Glossary On
Versions: 1 2 3 4 5 6 7 8 9 10 11 12 13 14 15 16 17 18 19 20 21 22 23 24 25 26 27
000
ASUS41 KOKX 170405
RWROKX

REGIONAL WEATHER ROUNDUP
NATIONAL WEATHER SERVICE NEW YORK NY
1200 AM EDT THU APR 17 2014

NOTE: "FAIR" INDICATES FEW OR NO CLOUDS BELOW 12,000 FEET WITH NO
SIGNIFICANT WEATHER AND/OR OBSTRUCTIONS TO VISIBILITY.

NYZ071-072-176-178-NJZ106-104-170500-
NEW YORK CITY METRO AREA


CITY           SKY/WX    TMP DP  RH WIND       PRES   REMARKS
CENTRAL PARK   CLEAR     40  13  33 NE8       30.59R WCI  34
LAGUARDIA APRT CLEAR     40  15  36 NE9       30.57R WCI  34
KENNEDY INTL   PTCLDY    40  16  37 NE9       30.58R WCI  34
NEWARK/LIBERTY PTCLDY    40  17  39 NE10      30.57R WCI  33
TETERBORO      CLEAR     41  15  35 NE3       30.57R
$$

NYZ177-179-078>081-170500-
LONG ISLAND NEW YORK

CITY           SKY/WX    TMP DP  RH WIND       PRES   REMARKS
FARMINGDALE    CLEAR     36  19  50 NE8       30.57R WCI  30
ISLIP          PTCLDY    37  21  52 N7        30.55R WCI  32
SHIRLEY        CLEAR     34  23  64 N5        30.58R WCI  30
WESTHAMPTON    CLEAR     38  19  46 N9        30.58R WCI  31
MONTAUK POINT    N/A     40  21  46 NE9       30.59R WCI  34
$$

NYZ052-065-067-170500-
HUDSON VALLEY

CITY           SKY/WX    TMP DP  RH WIND       PRES   REMARKS
WHITE PLAINS   CLEAR     35  15  44 N6        30.55R WCI  30
NEWBURGH       CLEAR     34  18  51 E6        30.58R WCI  29
MONTGOMERY     CLEAR     30  20  66 CALM      30.57R
POUGHKEEPSIE   CLEAR     34  17  50 NE7       30.58R WCI  28
ALBANY         CLEAR     30  14  51 NW5       30.61R WCI  25
$$

NJZ001-105-106-008-010-013-015-019>022-104-170500-
NEW JERSEY

CITY           SKY/WX    TMP DP  RH WIND       PRES   REMARKS
NEWARK/LIBERTY PTCLDY    40  17  39 NE10      30.57R WCI  33
TETERBORO      CLEAR     41  15  35 NE3       30.57R
CALDWELL       CLEAR     38  15  39 NE7       30.59R WCI  33
MORRISTOWN     CLEAR     37  19  48 NE8       30.58R WCI  31
SOMERVILLE     CLEAR     31  26  82 CALM      30.55R
LINDEN         FAIR      43  16  34 E12G17    30.59R
SUSSEX           N/A     34  19  54 CALM      30.57R
ANDOVER          N/A     32  21  64 CALM      30.56R
TRENTON        CLEAR     36  18  48 N5        30.55R WCI  32
MILLVILLE      CLEAR     30  27  88 CALM      30.55R
ATLANTIC CITY  CLEAR     32  26  78 CALM      30.55R
WRIGHTSTOWN    CLEAR     36  22  56 NE3       30.54R
TOMS RIVER     CLEAR     28  23  80 CALM      30.57R
BELMAR         CLEAR     39  19  45 NE6       30.55R WCI  35
$$

PAZ047>061-062-071-170500-
EASTERN PENNSYLVANIA

CITY           SKY/WX    TMP DP  RH WIND       PRES   REMARKS
PHILADELPHIA   CLEAR     42  16  34 NE9       30.57R
ALLENTOWN      CLEAR     35  16  45 CALM      30.57R
SCRANTON       CLEAR     31  17  56 CALM      30.54R
$$

CTZ002-004>006-009-010-012-RIZ004-006-007-MAZ004-011-015-170500-
SOUTHERN NEW ENGLAND
 IN CT

CITY           SKY/WX    TMP DP  RH WIND       PRES   REMARKS
BRADLEY INTL   CLEAR     32  19  58 N5        30.59R WCI  27
HARTFORD       CLEAR     34  18  52 NE5       30.60R WCI  30
DANBURY        CLEAR     31  21  66 CALM      30.59R
WTRBRY/OXFORD  CLEAR     28  16  59 CALM      30.58R
BRIDGEPORT     CLEAR     38  18  44 N9        30.58R WCI  31
MERIDEN        CLEAR     33  21  61 CALM      30.59R
NEW HAVEN      CLEAR     35  21  56 N6        30.58R WCI  30
CHESTER        FAIR      36  16  44 N7        30.58R WCI  30
GROTON         CLEAR     36  19  50 N8        30.58R WCI  30
WILLIMANTIC    CLEAR     32  23  69 CALM      30.59R

 IN RI

CITY           SKY/WX    TMP DP  RH WIND       PRES   REMARKS
PROVIDENCE     PTCLDY    35  16  45 NE12      30.60R WCI  27
BLOCK ISLAND   CLEAR     37  21  52 NE12G20   30.56R WCI  30
WESTERLY       CLEAR     36  16  44 N7        30.58R WCI  30

 IN MA

CITY           SKY/WX    TMP DP  RH WIND       PRES   REMARKS
BOSTON         CLEAR     34  14  43 N9        30.62R WCI  27
WORCESTER      CLEAR     29  16  58 N6        30.55R WCI  23
WESTFIELD      CLEAR     31  19  61 CALM      30.59R
PROVINCETOWN   CLEAR     37  21  52 MISG      30.60R
NANTUCKET      CLEAR     36  22  56 NE12      30.56R WCI  28
$$

ANZ330-335-338-340-345-350-353-355-170500-
COASTAL MARINE OBSERVATIONS


STATION/POSITION TIME  SKY/WX   TEMP    WIND        PRES    VSBY  WAVE
                                AIR SEA DIR/SP/G                  HT/PER
                 (UTC)          (F)     (DEG/KT/KT) (MB)    (MI)  (FT/S)
NY HARB ENTRANCE 0400            42 42   40/ 16/ 17 1034.5
4S FIRE IS       0300               44                N/A           3/10
23SW MTP         0400            41 42   80/ 12/ 14 1034.6          4/10
HUDSON CANYON    0300            42 45   50/ 10/ 12 1033.3          5/10
EXECUTION ROCKS  0400            40 42   20/ 12/ 14   N/A
WESTERN LI SOUND 0400            40      30/ 12/ 14   N/A           1
CENTRAL LI SOUND 0400            40 42   30/ 14/ 16   N/A           1/ 2
EASTERN LI SOUND NOT AVBL
ROBBINS REEF     0400            42      50/ 17/ 20   N/A
$$


>>>>>>>>>>>>>>>>>>>>>>>>>>>> KEY <<<<<<<<<<<<<<<<<<<<<<<<<<<
>                                                          <
>     SKY/WX - SKY CONDITION/PRESENT WEATHER               <
>     TMP    - TEMPERATURE IN FAHRENHEIT                   <
>     DP     - DEWPOINT IN FAHRENHEIT                      <
>     RH     - RELATIVE HUMIDITY IN PERCENT                <
>     WIND   - DIRECTION AND SPEED IN MPH                  <
>     PRES   - MEAN SEA LEVEL PRESSURE IN INCHES OF HG     <
>     WCI    - WIND CHILL INDEX                            <
>     VSB    - VISIBILITY IN MILES                         <
>     HX     - HEAT INDEX                                  <
>     TC     - TEMPERATURE IN CELSIUS                      <
>     VRB    - VARIABLE WIND DIRECTION                     <
>                                                          <
>>>>>>>>>>>>>>>>>>>>>>>>>>>> KEY <<<<<<<<<<<<<<<<<<<<<<<<<<<





USA.gov is the U.S. government's official web portal to all federal, state and local government web resources and services.